FENGYUN 1C DEB

Satellite information

Favourite Embed

Satellite Type and Status

DEBRISIN ORBIT

Key statistics

Satellite FENGYUN 1C DEB at a glance.

Uptime

9494

Days in orbit

Revolutions

≈ 14.2

Per day

Orbit

SSO

Sun Synchronous Orbit

Inclination

98.5

Latest

Satellite identification and parameters

Extended collection of information and parameters for FENGYUN 1C DEB.

Object identification

Identified? True

Debris? True

Object name: FENGYUN 1C DEB

International designator: 1999-025DTD

Object number (NORAD): 36180

Object ID (CCSDS): 36180

Country: PEOPLES REPUBLIC OF CHINA (PRC)

Current information (Y/N): Y

RCS size: SMALL

Orbital parameters

Period: 101.417 minutes

Inclination: 98.4533 deg

SMA: 7203.871 km

Apoapsis: 978.573 km

Periapsis: 672.9 km

RAAN: 183.8525 deg

Eccentricy: 0.0212159

Argument of periapsis: 357.7417 deg

Mean anomaly: 2.2782 deg

Mean motion: 14.19887157 rev/day

Mean motion (dot): 0.00001944 rev/day2

B* drag term: 0.00074788 1/REarth

Two-line elements (TLE)

Creation date: April 21, 2025, 3:51 a.m.

Reference frame: TEME

Reference center: EARTH

Epoch: April 20, 2025, 10:20 a.m. UTC

TLE line 0: 0 FENGYUN 1C DEB

TLE line 1: 1 36180U 99025DTD 25110.43057962 .00001944 00000-0 74788-3 0 9993

TLE line 2: 2 36180 98.4533 183.8525 0212159 357.7417 2.2782 14.19887157672296

Live tracking on map

Real-time ground track for satellite FENGYUN 1C DEB.

In-orbit conjunctions

A list of the most updated potential collisions computed for object FENGYUN 1C DEB.

Target Orbit TCA Probability of collision Miss distance Type
SL-8 R/B LEO 2025-03-04 05:24:48 0.0001451734 369.0 (m) ROCKET BODY
THORAD AGENA D DEB SSO 2024-11-10 19:25:34 0.0001528715 631.0 (m) DEBRIS

Associated space launch

Chinese polar orbiting meteorological satellite

FENGYUN 1C DEB was lifted into orbit during the mission ‘Long March 4B | Feng Yun 1C’, on board a Long March 4B space rocket.

The launch took place on May 10, 1999, 1:33 a.m. from Launch Complex 7.

For more information about the launch, click the button.

Launch to space Long March 4B | Feng Yun 1C
Long March 4B | Feng Yun 1C

Agency: N/A

Status: Launch Successful

Launch date: May 10, 1999, 1:33 a.m. UTC

Rocket: Long March 4B

Launch pad: Launch Complex 7

Location: Taiyuan Satellite Launch Center, People's Republic of China

...

Latest news about this satellite

There are no fresh news available about this satellite. Check back as we update our databases every day.


Newsletter sign-up

Weekly statistics, charts and insights to help you stay on top of the space industry.